Theta_e
324 320 316 319 315 315 312 303 294 290 293 289 286 289 289 293 293 293 291 291 294 295 296 297 294 296 297 294 298 296 293 297 296 291 290 295 310 312 317 315 320 326 328 328 331 337 341 343 347 348 348 348 347 347 347 347 347 347 347 347 346 346 346 346 345 346 346 346 345 345 344 344 344 343 342 342 341 340 340 340 339 340 340 341 341 342 341 340 338 337 336 335 334 333 333 333 333
321 317 316 316 316 310 304 296 288 286 284 281 287 286 288 291 291 290 292 291 294 297 293 297 298 299 297 298 294 298 297 298 297 298 300 303 308 314 315 315 322 327 327 328 330 333 337 339 345 347 347 347 347 347 347 347 347 346 346 346 346 346 346 345 346 346 346 345 345 344 344 343 342 341 340 340 339 338 338 339 339 339 339 339 338 338 338 337 336 335 333 333 332 331 331 331 331
316 317 316 314 312 309 303 298 294 280 285 282 283 288 290 291 290 290 292 292 291 294 292 297 299 298 300 299 298 298 294 299 298 300 301 304 313 317 316 316 322 326 326 327 330 331 333 337 343 347 346 346 347 346 346 346 346 346 346 346 346 346 346 346 346 345 345 344 344 343 342 342 341 339 338 338 338 337 338 338 338 338 337 336 336 336 336 335 333 332 331 331 330 329 329 329 329
315 317 313 309 308 300 299 292 285 285 286 282 282 286 288 292 290 291 291 291 290 292 296 299 300 300 299 296 298 299 297 299 300 302 300 306 313 316 316 318 321 324 323 325 328 330 329 336 343 346 346 346 346 346 346 346 346 346 345 346 346 345 345 344 344 343 343 343 342 341 341 339 339 338 337 336 335 335 336 336 336 336 335 336 335 334 332 332 332 330 330 329 329 328 327 327 327
314 317 311 305 303 300 296 291 288 285 286 283 282 285 289 290 292 291 293 293 292 294 294 296 295 297 299 298 297 298 296 298 301 302 301 304 306 314 316 320 320 323 323 322 324 326 325 336 342 345 346 346 346 346 346 345 345 345 344 344 344 343 343 343 342 342 342 341 340 339 339 338 338 336 335 334 332 333 333 334 334 334 333 333 332 332 330 331 331 330 329 329 328 327 326 326 327
311 311 310 312 305 303 295 291 289 286 290 286 286 289 289 292 292 293 295 293 294 293 295 293 297 297 296 296 297 297 297 304 302 302 301 305 307 314 317 320 321 322 321 320 321 322 323 335 340 344 345 345 345 344 344 344 344 343 342 342 342 342 342 342 342 341 340 340 339 338 338 337 337 335 333 332 331 331 331 331 332 331 331 330 330 331 330 329 329 329 328 327 327 325 325 325 325
313 306 303 303 300 298 290 286 285 286 294 290 290 292 296 295 294 294 294 295 296 296 293 298 294 295 295 294 298 299 300 303 302 305 305 306 309 315 318 319 319 321 319 319 320 321 321 334 341 344 344 344 343 343 343 342 343 342 342 341 341 341 341 341 341 340 340 338 337 337 337 336 335 333 331 330 330 329 329 329 329 329 329 329 329 330 330 329 328 328 327 326 325 324 323 324 324
311 309 302 296 291 293 291 286 288 286 290 294 292 293 297 296 294 295 294 295 295 298 295 292 293 295 294 296 294 295 299 301 304 302 302 305 311 315 318 319 319 318 319 317 318 318 325 333 338 342 343 342 343 342 341 342 342 341 341 340 340 339 340 340 339 338 337 335 333 334 334 333 332 331 330 329 328 328 327 327 328 328 328 328 328 329 328 328 328 327 327 326 324 323 323 323 323
305 303 299 296 294 288 285 288 288 289 291 291 294 294 303 299 295 296 293 293 294 293 293 294 293 294 290 291 295 295 296 299 300 303 303 307 311 315 319 318 319 317 317 317 317 316 319 331 336 339 341 342 342 341 341 341 340 340 339 339 339 338 337 336 335 334 334 333 332 332 332 331 331 329 329 328 327 327 327 327 328 327 327 327 327 328 328 328 328 327 326 326 324 323 322 322 321
303 301 295 292 288 290 281 286 287 289 290 291 292 296 295 294 294 294 295 294 295 293 294 292 292 295 292 292 293 294 298 299 301 302 303 308 311 315 317 317 317 317 315 317 316 318 317 327 334 336 339 340 340 340 339 339 339 339 338 336 336 334 334 334 333 332 332 332 331 331 330 330 329 329 328 328 327 327 327 327 326 327 327 327 327 327 327 327 327 326 325 324 323 322 321 320 319
297 296 294 294 287 284 285 284 284 288 286 288 292 296 295 294 296 293 293 293 293 295 293 293 296 294 293 293 295 295 296 298 302 302 304 308 310 315 316 315 314 316 316 314 314 316 318 320 328 333 335 337 337 338 337 337 335 334 334 334 334 334 333 333 332 331 331 330 330 330 329 329 329 328 327 327 327 327 326 326 326 326 326 325 326 326 325 325 325 324 323 322 321 321 320 319 318
296 293 292 284 285 285 283 283 286 289 291 291 293 292 291 294 294 295 292 294 293 292 293 295 297 294 293 292 292 295 296 297 301 301 305 307 310 312 315 312 313 313 314 313 313 314 316 316 322 326 331 333 334 335 335 335 335 334 333 333 333 333 332 332 331 330 330 330 330 330 329 329 328 327 327 327 326 326 325 325 325 325 325 324 324 324 323 323 322 322 322 321 321 320 319 318 317
296 291 287 287 285 286 284 285 288 290 290 290 292 295 293 294 295 295 292 293 292 293 294 296 295 297 294 292 291 292 298 299 300 302 305 307 308 309 310 311 312 312 313 312 312 313 312 315 317 320 324 328 329 330 331 332 333 334 333 333 332 331 330 330 330 329 329 329 330 329 329 327 326 326 326 326 325 324 324 323 323 324 324 323 323 323 321 321 320 320 320 319 319 318 318 317 315
295 292 291 288 284 284 286 287 284 289 288 290 290 291 293 295 294 294 291 294 292 294 295 295 297 295 293 293 295 290 294 297 299 303 303 303 306 307 308 308 309 309 310 311 314 313 313 313 315 315 320 322 321 325 327 329 331 332 332 332 331 331 331 329 329 329 328 328 328 328 327 325 325 325 324 324 324 323 323 322 323 323 323 322 322 321 320 319 318 318 317 317 318 317 316 315 314
300 292 288 287 286 284 284 289 287 284 288 290 292 292 293 296 293 290 295 294 296 294 297 296 297 296 292 294 293 292 297 298 300 301 301 304 306 306 305 306 308 307 307 308 312 312 313 312 314 314 314 315 317 320 319 325 327 329 330 330 330 331 330 329 328 327 327 327 326 326 325 324 323 323 322 322 322 321 320 321 322 322 321 321 320 319 319 317 316 316 315 315 316 316 315 314 312
297 292 290 292 285 285 285 286 285 287 290 289 291 289 292 292 291 295 294 296 295 295 295 297 298 297 295 295 295 297 293 297 299 299 302 303 302 303 304 305 305 305 306 308 310 311 312 312 311 312 313 313 313 315 319 320 324 325 327 329 329 329 328 328 328 327 324 322 322 321 320 317 318 315 318 316 320 320 320 316 320 320 320 320 319 317 317 316 315 314 313 313 312 312 311 311 310
294 293 290 282 287 284 285 287 286 286 287 287 288 291 294 292 293 292 292 294 295 293 295 294 298 297 294 293 293 293 296 301 300 299 301 300 302 301 302 303 303 304 307 307 309 311 310 311 311 311 311 312 312 314 315 316 318 323 324 325 325 325 326 325 325 322 317 315 313 313 311 305 303 304 305 304 312 306 314 316 319 319 319 318 317 316 316 315 313 313 311 310 308 307 304 304 305
299 292 285 284 284 284 286 288 288 290 291 291 292 290 293 291 290 295 294 294 293 291 292 292 294 294 293 292 294 295 296 298 298 301 300 299 300 300 303 304 304 308 307 307 307 309 310 310 311 311 310 310 310 311 312 312 314 320 314 316 317 320 322 321 317 310 312 306 311 305 300 302 300 299 301 308 303 306 309 314 316 317 317 316 315 314 314 313 313 311 310 309 306 304 300 290 292
293 286 284 288 284 290 291 289 290 290 291 289 290 289 292 294 293 294 294 290 290 292 292 291 294 296 294 293 294 295 297 297 298 301 299 299 300 302 304 305 304 305 306 307 308 308 309 310 310 311 311 309 309 309 310 310 311 312 310 312 314 317 314 311 307 307 303 302 299 297 298 297 296 298 299 302 303 309 308 312 314 314 315 314 313 312 312 311 310 309 308 306 304 300 290 288 288
293 290 286 285 288 289 289 290 292 291 293 294 293 290 289 291 292 293 293 293 290 291 292 291 292 297 297 294 293 294 296 297 298 300 300 300 300 302 303 304 304 306 308 309 309 308 307 309 310 310 310 308 309 308 308 309 308 309 309 309 310 310 307 305 303 301 300 298 296 295 294 295 296 297 305 307 308 303 307 310 311 311 311 310 309 307 310 309 309 306 304 301 296 292 288 289 288
294 292 288 290 288 290 293 291 293 293 291 292 291 289 288 291 290 292 290 292 294 293 294 296 296 296 297 294 293 293 295 295 296 299 299 300 300 302 304 305 306 307 308 307 305 308 307 308 309 308 308 307 307 307 307 307 307 306 306 306 307 306 303 302 300 298 297 295 294 294 292 294 295 297 297 298 296 297 295 294 293 292 293 294 298 289 290 292 289 288 289 291 288 289 288 288 288
293 295 295 292 289 290 294 292 291 291 289 291 288 289 295 291 290 290 292 291 295 295 293 295 297 298 297 295 293 293 294 294 296 297 298 299 299 299 301 302 303 300 302 304 307 308 307 308 309 308 307 306 307 307 307 307 306 306 304 304 303 302 301 299 297 296 295 293 292 293 294 293 295 295 294 293 294 293 292 289 289 289 289 290 291 287 287 287 287 287 288 288 287 287 287 287 289
293 293 294 295 290 293 293 291 289 290 291 289 290 292 290 291 293 289 291 294 299 299 294 294 296 297 297 295 293 293 293 294 295 296 298 298 298 299 300 301 302 302 301 305 306 307 307 307 307 307 307 306 305 305 305 305 305 305 303 302 302 300 298 298 296 294 294 292 292 293 293 292 293 292 292 291 291 290 290 288 287 288 288 287 288 287 287 287 287 286 286 287 286 287 287 286 286
294 293 289 293 293 295 296 296 293 289 291 293 292 289 291 293 293 289 291 296 298 299 295 295 295 293 294 293 293 295 295 295 295 297 298 299 299 300 300 300 301 301 299 301 302 304 305 306 306 306 307 306 304 303 304 303 303 302 301 302 302 301 297 297 295 294 293 292 292 293 293 292 293 291 291 290 289 288 289 288 287 286 286 286 288 288 287 286 286 286 286 286 286 286 286 285 286
293 293 291 293 292 293 294 292 290 290 291 292 290 291 295 294 293 289 293 297 298 298 296 295 295 292 291 293 293 294 294 295 295 296 297 298 299 300 299 298 297 297 299 299 300 301 303 305 305 306 306 306 305 303 303 303 302 301 300 300 299 301 297 296 295 293 293 292 292 293 293 291 291 291 290 290 288 288 287 287 286 286 287 286 287 286 286 286 286 286 286 285 285 286 285 285 285
293 296 292 290 291 291 292 291 290 290 292 289 292 292 294 293 291 292 296 298 300 299 296 296 293 291 291 293 294 294 294 295 296 295 296 297 297 296 297 297 297 296 298 299 298 299 301 303 304 305 306 306 305 302 303 302 301 300 299 299 298 299 296 294 293 293 292 292 291 292 292 292 291 290 290 288 288 287 287 287 287 286 286 286 286 286 286 285 286 285 285 285 285 285 286 287 285
290 291 291 292 293 291 290 290 291 289 288 286 292 293 295 291 292 293 294 296 293 293 292 290 290 292 293 293 293 293 294 295 295 297 295 295 295 296 297 296 296 298 297 297 298 298 299 300 302 304 305 305 304 302 302 302 300 300 299 298 297 297 295 293 293 292 292 292 291 292 292 292 291 289 289 288 287 287 287 287 286 285 285 286 286 286 286 286 285 285 285 284 284 284 285 286 284
290 291 289 290 289 289 289 288 291 290 293 289 293 293 293 288 288 293 298 293 291 294 293 290 288 291 292 292 292 293 293 296 295 294 295 295 295 296 296 296 297 297 296 297 298 297 297 298 300 302 304 304 303 302 302 301 300 300 299 297 296 296 294 292 292 292 292 292 292 291 291 291 291 289 289 288 288 287 286 286 285 285 285 285 286 285 286 285 285 285 284 284 284 284 284 284 284
290 290 290 289 288 291 293 290 292 289 291 287 290 289 289 289 288 296 297 296 294 292 294 295 293 292 292 291 291 291 293 295 294 294 296 297 298 298 297 298 298 297 298 298 297 296 296 296 297 299 302 302 302 301 301 301 300 299 298 296 296 295 294 292 292 292 292 291 292 291 291 290 291 289 288 289 290 287 286 286 285 286 285 285 285 285 285 284 285 285 285 285 284 283 283 283 285
290 287 287 289 289 288 292 289 287 288 289 287 290 285 283 291 294 296 297 293 292 291 293 295 295 294 293 291 291 292 293 292 293 295 296 297 298 297 297 298 298 298 298 297 296 296 297 297 297 298 299 300 301 301 301 300 299 298 297 295 295 294 293 292 292 292 292 291 292 291 291 290 290 289 289 288 288 286 286 286 285 284 284 285 285 286 285 284 284 284 284 284 286 284 282 283 283
290 286 287 285 284 286 289 289 287 288 288 289 290 287 284 289 293 297 294 291 291 292 293 294 294 293 292 292 291 292 293 294 295 295 296 297 297 298 298 298 298 298 298 296 296 297 296 296 297 296 298 299 300 300 300 299 298 297 296 294 294 293 293 292 292 291 291 291 291 291 291 290 290 289 289 288 287 286 286 286 285 285 284 285 284 284 284 284 284 284 284 283 282 282 282 285 282
283 286 282 278 283 284 289 288 288 289 287 287 289 285 289 291 294 297 291 288 288 290 292 292 293 293 293 292 291 292 294 295 294 294 295 296 297 297 298 298 298 297 297 298 297 296 296 296 296 296 296 297 298 300 300 299 298 296 295 295 293 292 293 292 291 291 291 290 290 291 290 290 290 289 288 288 287 286 286 286 285 284 284 285 284 283 284 283 283 284 283 282 281 281 282 281 282
280 285 282 285 281 283 285 291 286 289 288 288 291 288 284 286 292 295 291 292 288 290 290 291 292 292 293 293 293 293 293 294 294 294 295 295 296 297 298 298 298 298 298 298 297 296 295 295 296 295 295 296 297 298 298 298 297 294 294 293 292 292 292 292 291 290 290 290 290 290 290 290 290 289 288 288 288 286 286 286 285 284 285 284 283 283 283 284 284 284 282 284 281 281 281 281 281
284 282 282 281 283 283 283 286 292 285 290 285 288 285 289 291 288 290 292 289 287 287 290 292 293 294 295 294 293 293 293 294 295 297 296 296 296 296 298 299 298 298 298 298 297 297 296 295 295 295 295 296 296 296 297 297 296 294 292 292 292 291 291 291 291 290 290 290 290 290 290 290 290 288 288 288 287 287 286 286 284 284 284 283 283 283 283 283 283 282 281 281 281 281 280 281 281
283 281 281 282 280 283 285 283 285 285 286 285 284 286 287 290 291 291 292 293 292 292 293 293 294 294 295 295 294 295 295 296 297 299 299 298 295 296 296 297 297 297 298 297 297 297 296 295 295 295 295 295 295 295 296 295 294 292 289 289 289 290 290 290 290 289 289 289 290 290 290 290 290 288 288 288 287 287 285 285 284 283 284 283 283 283 282 283 282 281 281 281 281 280 280 280 281
286 284 284 281 282 282 282 286 289 287 288 285 284 287 289 290 291 292 293 293 293 294 294 294 293 293 293 294 294 295 296 297 299 300 299 297 297 296 295 296 296 297 297 296 296 296 296 295 294 294 295 294 294 294 295 294 292 291 290 288 288 289 290 290 289 289 289 289 290 290 289 290 290 289 288 287 287 286 285 285 284 283 283 283 283 282 282 282 282 281 280 281 281 282 281 280 280
284 284 282 283 283 285 286 288 290 286 285 285 288 289 289 289 290 291 293 293 292 293 293 294 294 293 293 294 294 295 296 297 300 300 299 298 296 296 295 294 295 294 295 295 295 296 296 295 294 293 294 294 294 293 293 293 292 291 290 289 290 290 290 290 289 289 289 289 289 289 289 289 289 289 288 287 287 287 285 284 284 283 283 283 283 283 283 283 282 281 282 282 280 279 280 279 279
285 284 282 284 282 284 288 289 291 285 285 282 284 288 288 289 291 292 293 292 291 292 293 294 295 294 294 294 295 296 297 299 298 298 299 295 294 293 293 294 293 293 294 294 295 296 296 296 294 294 294 294 294 294 294 294 293 293 292 291 291 291 290 290 289 289 289 289 289 289 289 289 289 288 288 287 287 286 285 284 284 283 283 283 283 282 281 284 282 281 282 279 279 278 279 279 280
284 284 284 282 283 286 288 289 291 287 284 285 286 286 287 289 291 292 292 292 294 295 294 294 295 295 296 296 295 296 297 297 298 297 298 297 294 293 293 293 294 295 295 294 295 295 295 295 295 295 294 294 294 294 294 294 294 294 293 292 292 290 291 291 290 290 290 289 288 288 288 288 288 288 288 287 286 286 285 284 284 284 283 283 282 281 282 282 281 281 281 281 279 279 280 281 278
282 283 280 282 286 283 283 283 283 283 286 284 285 286 288 289 291 292 293 294 294 294 294 294 295 295 296 296 297 297 297 297 297 297 298 298 293 293 292 292 293 293 293 293 294 294 295 295 295 294 294 294 294 294 294 294 294 293 291 289 290 290 288 289 288 287 288 288 287 287 288 288 288 288 287 287 287 286 285 284 284 283 283 283 283 282 281 281 281 281 280 281 281 279 278 279 281
284 285 284 284 285 286 285 284 283 283 284 283 285 286 288 288 288 288 291 292 292 293 294 294 294 296 297 297 297 296 296 296 297 298 298 297 294 293 292 293 292 292 293 294 294 294 295 295 295 294 294 293 294 294 294 293 292 290 288 287 287 286 286 287 286 285 287 288 288 287 287 287 288 288 287 287 287 286 285 284 284 283 283 282 282 282 282 282 281 282 281 281 280 281 278 277 280
285 283 286 287 288 286 284 285 283 280 281 280 282 282 285 284 287 287 289 285 286 288 290 291 293 294 295 293 295 295 295 296 296 297 297 297 296 294 290 290 290 292 293 294 294 295 295 295 294 294 294 293 293 293 293 293 292 291 288 288 286 287 286 286 286 287 286 287 288 288 287 287 287 287 287 287 287 286 284 284 284 283 283 282 282 282 282 281 280 281 281 281 280 279 280 278 278
283 283 285 288 287 285 283 283 282 277 276 283 282 279 281 282 283 286 285 285 288 289 289 292 294 294 292 293 294 294 294 295 294 294 295 295 296 292 292 291 291 292 293 294 293 293 294 294 294 294 294 293 293 293 293 293 291 291 290 290 290 289 289 288 289 289 288 289 289 288 288 287 287 287 286 286 286 286 285 284 283 283 283 282 283 281 281 281 281 281 281 280 280 281 280 279 279
282 282 283 284 283 283 283 282 283 281 279 282 283 282 279 282 283 287 288 288 288 290 292 292 293 292 293 293 293 294 295 294 295 295 295 295 293 292 294 293 292 293 294 292 293 293 293 293 292 293 293 293 293 293 292 293 292 291 290 290 290 290 290 290 289 289 289 289 288 288 287 286 286 287 286 286 286 285 285 283 283 283 283 282 283 282 282 282 281 281 281 281 279 280 280 281 278
282 283 283 284 284 283 282 282 280 279 279 280 280 282 279 279 284 284 285 284 287 288 290 292 293 293 293 294 294 293 294 295 294 295 296 294 292 292 292 293 294 293 292 292 293 293 293 292 292 292 292 292 292 292 292 292 292 291 291 290 290 291 290 289 288 289 289 288 287 286 286 286 286 286 286 285 285 285 285 284 283 283 283 282 283 282 281 281 281 280 280 280 279 279 279 279 279
284 283 282 282 281 281 281 279 280 278 276 279 279 282 277 282 288 284 282 283 284 287 290 290 291 292 293 294 293 294 295 295 295 296 294 291 290 291 291 291 291 292 292 292 290 290 291 290 291 291 291 291 291 291 292 292 292 291 290 290 290 290 289 287 287 287 287 286 286 285 286 285 285 285 285 285 284 285 284 284 283 283 283 282 283 282 281 280 280 280 281 280 280 279 278 279 280
283 284 285 281 280 278 277 277 278 276 274 280 281 282 283 278 283 283 282 284 285 287 287 288 290 290 292 292 292 294 294 294 294 296 292 289 288 289 287 289 290 288 287 288 289 289 289 290 290 290 290 291 291 291 291 291 291 291 290 290 290 289 289 287 286 286 286 284 286 285 285 285 285 285 285 284 284 284 284 284 283 283 283 283 283 282 281 281 280 280 280 280 279 279 279 278 281
286 285 282 281 283 276 275 268 275 274 273 279 281 283 283 277 280 281 281 282 282 285 287 289 288 289 290 292 293 292 292 293 294 292 292 292 291 290 288 289 288 288 286 287 287 288 288 288 289 289 289 290 290 290 291 291 291 291 291 290 290 290 289 288 287 287 286 285 286 285 285 285 284 285 284 284 284 284 284 283 283 282 282 282 282 282 281 281 280 280 280 279 279 279 278 279 279
284 281 283 279 272 274 269 271 270 271 276 277 279 281 279 280 286 283 288 290 289 286 287 289 289 289 291 294 294 294 294 294 294 292 291 291 293 293 291 291 288 287 287 286 287 287 287 287 287 288 288 289 289 290 290 290 290 291 291 290 290 290 290 289 288 288 287 286 286 285 284 284 284 283 284 284 284 283 283 283 282 282 282 282 282 281 281 280 280 280 279 279 279 279 279 279 278
283 283 279 275 271 269 268 264 264 268 275 276 279 280 279 285 285 286 291 293 291 290 288 288 288 290 292 293 293 294 294 293 293 293 293 291 292 293 293 291 289 288 286 287 286 286 286 287 287 288 288 288 289 289 289 290 290 291 291 290 290 290 290 289 289 288 287 287 287 286 285 285 284 285 284 284 285 284 284 284 283 283 282 282 282 281 281 280 280 280 279 279 279 279 279 279 279
285 282 285 281 277 270 267 270 276 278 278 275 275 275 274 275 280 283 287 289 288 287 287 288 287 287 288 290 291 291 291 292 292 293 293 292 292 291 292 292 289 288 287 286 286 286 286 287 287 287 287 287 288 288 289 289 290 290 290 290 290 290 290 290 289 289 288 287 287 287 286 286 286 285 285 285 285 284 284 284 283 283 282 281 281 281 281 280 280 280 279 279 279 279 279 279 278
282 281 280 278 280 280 280 280 277 279 276 271 272 277 276 283 284 287 287 287 288 289 289 286 288 288 288 289 291 292 292 292 292 291 292 291 290 290 291 291 290 287 286 285 286 286 287 287 287 287 288 287 288 288 288 289 289 290 289 289 290 290 290 290 289 289 289 288 287 287 287 286 286 286 286 285 285 284 284 283 283 283 282 281 281 281 280 280 279 279 279 279 278 279 278 278 278
281 283 280 282 283 284 281 280 280 275 275 278 280 279 282 283 289 293 289 287 287 285 287 288 289 291 289 289 291 291 291 291 291 290 289 290 289 290 290 290 290 288 286 287 287 287 287 287 287 287 287 287 288 288 288 288 289 288 289 289 289 289 289 289 289 289 288 288 287 287 287 287 286 286 286 285 285 284 284 284 283 282 282 281 281 281 280 280 279 279 279 278 278 278 278 278 278
283 279 283 285 284 284 282 276 274 277 276 279 285 281 283 281 280 284 284 288 287 284 285 286 286 286 285 290 290 289 290 290 289 288 288 287 287 289 290 290 289 289 289 288 287 287 287 288 287 287 287 287 288 288 288 288 288 288 288 289 289 289 289 289 289 288 288 286 286 286 286 285 285 286 285 285 285 284 284 284 283 282 282 281 280 280 280 279 279 279 279 279 279 278 278 278 278
283 282 286 284 279 278 280 275 274 275 275 278 281 283 283 285 285 290 290 291 292 291 286 285 287 287 286 287 288 289 289 291 294 295 294 290 288 289 289 290 290 289 289 288 288 286 286 286 287 288 288 288 288 288 287 288 288 289 289 289 289 289 289 289 288 287 286 286 286 285 285 285 283 284 285 284 284 283 283 283 283 282 282 281 280 280 280 279 279 279 278 278 278 278 278 277 277
287 287 285 286 284 283 279 282 278 280 277 278 278 284 280 288 288 290 290 292 293 293 286 286 287 288 288 287 288 288 292 294 295 295 296 297 292 289 289 290 291 292 291 289 287 286 287 288 287 287 287 286 286 286 287 287 288 288 288 288 288 288 289 288 288 287 286 286 286 285 285 284 284 284 284 284 284 283 283 283 283 282 282 281 280 280 280 279 279 279 279 278 278 278 278 277 277
284 284 282 284 284 285 284 282 282 281 279 278 278 277 283 288 292 292 292 293 294 294 292 289 290 289 286 285 288 292 293 293 292 293 294 294 292 290 289 290 290 290 289 288 287 287 286 286 286 286 286 286 286 287 286 288 288 288 287 287 288 287 287 287 286 286 286 285 285 285 285 285 283 283 283 283 283 283 283 283 283 282 282 281 280 280 280 280 279 279 279 279 278 278 278 277 277
289 287 285 286 283 281 280 278 287 283 281 277 278 276 284 290 295 295 294 295 295 295 291 287 285 284 285 290 294 293 292 291 291 291 289 289 289 289 289 290 289 288 288 288 288 286 286 285 285 285 285 284 285 286 287 287 287 288 287 288 287 287 286 286 285 285 286 286 285 285 285 284 284 284 283 284 283 283 283 283 282 282 282 281 281 280 280 280 279 279 279 279 278 277 277 277 277
Wind_Speed
4 4 1 1 3 1 1 6 0 3 2 4 3 0 3 1 2 4 3 3 1 1 1 1 5 6 4 4 10 4 2 8 8 8 4 2 3 4 5 2 1 7 8 6 6 6 7 9 13 13 15 14 14 14 13 13 13 13 12 11 11 10 10 9 9 10 10 10 10 10 10 9 9 9 9 8 8 7 7 7 7 8 9 9 10 11 11 12 12 12 12 12 13 13 13 14 14
2 2 3 1 0 1 1 1 3 3 4 3 6 2 4 2 1 4 4 4 3 1 3 1 2 1 3 2 1 1 3 6 6 1 3 3 5 2 5 4 4 11 7 6 5 5 6 6 11 13 16 15 14 14 14 13 12 12 12 11 11 11 10 10 10 11 11 11 10 10 9 9 8 8 8 7 7 6 7 7 8 7 8 9 9 9 11 11 11 11 11 12 12 12 13 14 13
2 3 1 3 3 4 2 4 3 1 1 4 7 7 2 1 4 6 8 7 3 1 2 0 0 1 1 2 2 4 7 0 2 1 2 3 3 7 7 4 5 6 7 5 6 5 5 6 11 13 15 14 14 14 14 13 13 13 12 12 12 12 12 12 11 11 11 9 10 9 9 8 8 7 7 7 6 7 8 10 9 9 8 8 8 8 10 10 10 10 11 12 12 12 13 13 13
1 4 3 3 1 3 1 3 3 4 2 5 5 5 3 3 4 5 4 6 5 1 1 0 2 1 3 5 3 1 4 3 4 4 1 4 7 3 8 6 5 5 4 5 5 5 5 6 11 13 16 15 15 15 14 13 13 13 13 12 12 13 12 12 11 11 10 9 8 7 7 6 7 6 7 6 6 7 9 10 10 10 10 10 10 9 10 10 10 10 11 11 12 13 13 13 13
1 2 2 3 3 1 1 0 2 3 5 5 3 4 5 5 6 4 4 2 3 2 1 1 0 1 1 2 0 1 3 2 2 5 1 3 2 3 7 7 5 6 6 5 5 5 4 7 12 12 16 15 15 15 14 14 13 12 12 11 11 11 11 11 10 10 9 8 8 7 6 6 7 6 6 6 6 8 9 10 10 10 10 10 10 10 10 11 11 11 11 11 12 13 13 13 14
4 2 4 1 0 2 5 1 0 4 7 5 1 4 3 6 4 2 7 7 3 4 3 0 1 1 1 3 4 2 3 0 1 1 3 3 4 5 8 6 6 6 6 5 4 4 4 7 11 11 16 16 15 14 13 12 12 11 10 11 10 9 10 10 10 10 9 8 7 6 6 6 6 6 7 6 7 8 9 9 10 10 10 10 10 10 10 10 11 11 11 11 12 12 13 13 14
1 3 5 4 2 4 4 3 5 5 9 7 4 6 8 3 4 2 5 3 1 1 3 1 1 0 2 3 2 4 1 2 2 1 6 1 4 7 8 6 5 7 6 5 4 5 4 7 10 11 13 13 15 13 13 13 12 12 11 10 11 11 11 11 11 10 10 8 8 8 8 8 7 8 8 8 8 9 9 10 10 10 10 10 10 10 10 11 11 11 11 12 12 12 13 13 13
2 2 1 1 1 2 0 2 5 5 5 7 3 4 8 2 1 0 3 1 4 1 0 2 0 3 8 3 2 2 2 3 1 0 2 2 5 8 8 6 8 7 6 4 4 4 5 7 9 9 12 13 11 13 13 13 13 13 12 12 12 12 11 10 10 9 10 10 10 9 8 9 9 9 9 9 9 9 10 10 10 10 10 10 10 10 10 11 11 11 11 12 12 12 13 13 13
5 5 0 3 1 2 1 4 5 3 7 4 9 7 10 5 3 2 5 3 3 2 1 1 4 2 3 4 4 2 4 1 2 4 3 4 8 9 8 8 9 8 6 5 4 4 4 7 8 9 10 12 12 14 13 14 13 12 12 12 12 13 13 12 11 10 9 9 9 9 10 10 10 11 10 10 10 10 10 11 11 11 11 10 10 11 11 11 11 11 11 12 12 12 13 13 13
2 2 1 1 3 3 3 7 1 5 5 3 5 9 6 1 1 4 3 5 6 1 2 2 2 6 1 5 6 5 1 2 1 1 2 6 7 8 7 7 5 7 6 6 4 4 4 6 8 8 9 10 11 13 15 14 14 14 14 13 13 11 11 12 11 10 11 10 10 10 11 11 11 11 11 11 11 10 11 11 11 11 11 11 11 11 11 11 11 12 12 12 12 12 12 12 13
0 5 2 1 1 1 3 7 4 7 4 4 9 11 11 4 3 2 4 3 1 3 2 4 1 6 0 5 6 1 2 2 3 5 5 6 6 8 8 5 4 6 6 4 4 3 4 4 8 8 8 10 10 10 13 11 15 14 13 13 13 13 13 12 12 12 11 11 11 11 12 12 12 11 11 11 11 11 11 11 11 11 11 11 11 11 11 11 11 12 12 12 12 12 12 13 13
1 1 2 1 2 3 4 3 6 9 8 3 4 2 1 3 3 1 2 3 1 3 4 6 1 3 1 2 4 1 4 3 5 2 6 5 6 5 6 4 5 4 5 4 3 3 4 4 5 6 9 9 11 10 10 11 12 12 12 14 14 14 14 13 13 13 12 12 13 13 13 12 12 12 12 12 11 11 11 11 11 11 11 11 11 11 11 11 11 12 12 12 12 12 12 12 13
3 1 5 2 1 1 1 2 7 4 6 5 4 1 0 5 3 4 2 2 0 2 4 12 1 1 3 3 4 4 1 4 4 2 4 6 5 3 4 4 5 4 5 5 4 4 4 4 4 4 5 9 10 11 10 10 11 12 13 15 15 14 14 14 13 13 13 14 14 14 12 12 12 12 12 12 11 11 11 11 11 11 11 11 12 12 12 12 12 11 11 12 12 12 12 12 13
3 5 4 2 2 0 1 4 2 4 6 4 3 3 0 1 3 3 4 1 5 3 2 1 1 3 4 2 8 4 4 3 3 3 4 5 4 3 4 4 4 4 4 4 6 5 4 4 4 4 4 5 5 7 8 9 9 9 11 12 12 13 13 14 14 14 14 14 13 12 12 11 12 12 12 12 12 12 11 11 11 12 12 12 12 12 12 12 12 12 12 12 12 12 13 13 13
1 2 4 2 1 1 3 1 1 1 7 2 2 0 1 5 2 1 5 3 9 4 0 1 4 3 5 4 8 3 1 0 3 4 6 5 4 4 3 3 4 4 4 4 4 5 6 4 4 4 4 4 5 5 4 6 9 9 10 11 11 11 11 11 12 14 13 12 12 11 10 9 9 10 11 11 12 12 11 10 11 12 12 12 12 12 12 12 12 12 12 12 12 13 13 13 14
5 5 3 1 2 1 5 3 0 0 8 2 3 1 1 6 2 1 5 4 2 1 0 3 0 4 2 4 4 1 2 4 4 6 6 6 4 3 3 2 3 4 4 4 5 6 5 6 5 5 5 5 5 5 4 4 7 10 11 11 11 11 12 11 11 11 10 10 10 10 9 6 7 5 8 6 10 10 8 6 11 12 12 12 12 12 12 12 12 12 12 13 13 13 13 14 14
2 4 0 2 5 3 4 3 3 3 5 3 4 1 1 3 0 3 1 0 2 3 1 2 5 0 5 5 1 3 1 4 6 7 6 5 5 3 2 2 3 4 5 6 6 7 6 7 6 6 5 5 5 5 5 5 5 9 8 10 11 11 11 11 11 10 9 9 8 8 8 5 4 4 5 4 7 5 7 8 10 12 12 12 12 12 12 12 12 12 13 13 14 14 13 13 14
1 2 3 2 5 3 6 6 9 1 1 3 2 1 0 6 2 1 1 1 2 3 3 5 5 7 4 2 0 2 4 7 7 10 7 7 5 5 6 6 6 10 8 8 7 7 7 7 8 7 6 6 6 6 5 5 5 7 5 5 6 8 9 9 7 6 7 5 8 7 5 5 5 4 4 5 4 4 6 8 9 11 12 12 12 12 12 12 12 12 13 13 14 13 12 7 7
3 2 2 8 5 8 8 5 7 1 7 4 2 1 2 8 1 2 1 4 1 5 5 2 7 10 5 1 2 5 7 6 9 9 12 13 11 13 12 9 9 6 9 9 9 10 8 7 7 9 8 7 6 6 5 5 6 5 5 6 6 7 7 6 6 6 5 6 5 5 4 5 5 4 4 4 4 7 6 8 9 11 12 12 12 13 12 12 13 13 13 13 13 12 7 6 6
3 5 5 7 8 5 5 4 6 9 3 6 6 3 3 5 1 0 2 7 2 8 9 4 5 12 11 5 3 5 7 8 9 12 13 14 14 14 11 11 11 12 13 12 10 7 8 9 10 8 8 7 7 6 6 6 5 5 6 6 6 6 6 6 6 6 6 6 6 5 6 5 5 5 6 8 7 5 6 8 9 9 10 9 10 7 10 11 13 13 13 12 8 5 6 6 6
1 2 4 6 3 2 6 9 9 8 1 3 3 1 3 7 6 1 2 6 9 10 9 11 12 13 14 6 6 6 9 9 10 11 12 13 13 10 13 15 16 16 11 6 5 11 12 10 9 9 8 7 8 7 7 7 6 6 6 6 6 6 6 6 6 6 6 6 6 6 6 5 5 5 4 4 5 5 5 4 4 4 4 5 7 6 5 6 6 6 6 6 5 5 6 5 5
4 9 5 4 1 2 6 6 7 4 3 3 2 5 8 1 0 4 4 7 14 7 8 11 14 13 9 7 9 5 8 10 12 13 15 15 17 17 12 9 6 4 5 8 13 11 11 10 9 8 8 8 9 8 8 6 7 7 6 6 6 6 7 6 6 6 6 7 6 6 6 6 6 6 4 5 4 5 5 5 5 4 4 5 4 6 5 5 5 5 6 6 5 5 5 4 3
5 3 6 6 6 5 1 2 4 4 1 2 3 4 4 5 7 3 5 12 17 9 5 7 10 10 8 1 6 7 9 12 13 16 16 15 14 14 13 12 11 12 10 13 9 8 8 9 10 9 10 9 9 7 7 7 7 6 6 6 7 7 6 7 7 6 6 6 6 7 8 7 6 6 6 5 5 5 6 5 5 5 5 6 4 6 5 4 5 6 6 5 4 4 4 3 3
2 7 0 6 5 10 9 5 2 2 3 7 3 5 7 9 13 1 6 13 17 16 6 9 9 5 2 5 8 12 15 16 18 19 18 21 21 21 19 17 14 8 6 9 9 10 10 13 11 10 10 10 9 8 8 8 7 7 7 6 7 7 7 7 7 7 7 7 6 7 7 7 8 7 6 6 6 4 5 4 5 5 6 5 3 5 6 5 5 5 5 4 5 4 4 3 3
4 7 4 5 1 7 8 5 5 6 9 7 3 6 18 10 9 3 10 15 15 17 9 9 10 7 6 7 9 10 10 11 13 15 10 11 11 11 7 6 5 7 12 11 10 11 13 12 12 13 11 12 9 8 9 8 7 7 7 7 8 7 7 7 7 7 7 7 7 7 7 8 6 6 7 7 5 5 5 5 5 5 5 5 5 4 5 5 5 5 5 4 4 4 4 4 3
7 12 2 2 3 6 6 6 6 7 6 3 1 13 17 11 7 16 19 19 20 14 9 9 8 7 8 11 11 10 12 14 15 11 17 14 9 8 12 10 10 12 16 11 11 12 9 11 14 16 14 13 11 9 9 8 9 9 9 9 8 7 8 7 6 7 7 8 8 7 7 7 8 8 7 6 7 6 5 4 4 5 5 4 5 5 3 5 6 4 3 3 4 3 4 2 3
4 3 3 5 7 6 5 5 6 3 5 5 7 11 16 2 3 14 6 13 6 4 6 4 5 9 10 9 9 9 11 15 17 14 6 7 9 12 14 11 13 18 10 13 12 11 9 11 14 14 13 11 10 11 10 11 9 10 10 8 8 9 8 7 7 7 7 8 8 8 7 7 7 7 7 7 6 6 6 5 5 4 5 4 3 4 3 4 4 4 4 5 4 4 3 2 3
1 1 4 6 6 7 8 5 12 1 8 10 10 12 10 4 2 16 19 7 1 2 9 7 5 8 9 9 9 8 9 14 9 5 15 12 14 15 16 15 18 15 12 16 13 9 10 15 15 13 14 13 12 12 11 11 12 11 10 8 9 8 8 8 8 7 8 8 7 8 7 7 7 6 7 7 7 7 6 6 5 5 5 4 3 4 4 3 3 3 3 3 3 3 3 2 1
1 1 6 9 6 10 9 6 8 9 8 5 7 1 5 5 8 20 19 4 4 6 11 14 9 10 10 8 8 7 13 11 6 9 16 17 14 12 17 18 17 15 14 15 12 10 16 14 13 14 14 13 14 15 14 12 11 10 10 10 9 9 8 8 8 9 8 8 7 8 8 8 7 8 7 8 7 7 6 6 6 5 5 5 3 4 4 3 3 4 3 3 3 3 3 2 1
1 1 1 10 7 10 9 4 2 6 4 8 6 8 6 14 20 19 16 5 1 3 9 12 12 9 9 7 8 10 10 8 10 15 16 15 14 12 17 16 15 14 12 10 10 15 13 9 10 10 13 15 17 14 12 11 12 11 10 9 9 9 9 9 9 8 8 8 8 8 8 8 7 7 8 7 6 7 6 6 6 6 5 4 4 4 5 4 5 5 4 4 3 3 3 2 2
5 3 2 6 6 10 3 0 2 1 3 9 2 10 6 11 15 19 8 2 5 8 10 12 12 8 8 8 7 10 12 10 15 17 16 15 12 11 16 13 12 14 9 9 15 18 11 12 10 11 14 16 15 15 15 14 12 12 11 10 10 11 9 10 9 8 8 8 8 8 9 8 8 8 8 8 7 7 7 6 6 6 5 4 5 4 4 3 4 5 5 5 3 3 2 3 3
1 3 6 2 6 7 11 6 5 9 1 2 5 10 14 11 16 21 4 1 3 7 10 11 11 10 10 8 8 10 13 10 11 13 16 15 14 14 14 16 14 12 15 16 15 10 14 14 13 13 13 16 17 18 16 15 14 12 11 10 9 10 9 9 9 10 9 8 8 8 9 9 8 9 8 8 8 7 7 8 7 6 5 5 5 4 4 5 5 4 3 4 6 3 3 1 1
3 6 6 9 2 7 9 9 3 8 2 1 11 12 3 7 15 16 7 2 4 7 10 10 12 12 13 10 9 9 11 13 11 14 16 15 14 14 14 16 14 17 17 15 14 13 14 14 15 16 17 19 18 16 13 11 11 11 11 11 11 10 10 10 9 8 8 9 8 9 9 9 9 9 9 9 8 8 7 7 6 6 5 6 6 5 5 5 6 5 4 3 2 5 3 3 0
7 1 6 4 7 5 6 8 10 2 7 4 6 7 13 12 5 7 13 4 2 6 11 13 13 12 15 12 9 11 12 14 17 17 18 14 13 13 15 14 14 14 14 15 15 16 18 15 15 16 14 14 14 14 14 13 11 9 8 8 8 9 10 8 8 8 9 9 8 9 9 10 9 9 9 9 8 8 7 7 6 7 6 6 6 6 6 4 4 4 5 2 3 4 5 4 3
8 4 5 8 4 8 13 4 4 4 2 4 2 12 16 15 12 13 13 15 14 17 17 16 16 15 16 13 11 15 16 17 20 20 16 10 11 13 13 12 11 11 12 14 13 13 10 11 12 13 14 14 13 13 11 9 7 6 4 5 6 7 7 7 8 8 8 8 10 10 10 9 9 9 9 9 9 8 8 7 7 7 7 7 6 6 6 5 4 4 4 3 1 1 4 3 3
11 7 8 5 9 6 6 10 10 4 9 6 8 15 15 14 14 13 14 12 16 22 19 16 14 13 13 13 14 16 17 20 20 17 13 8 10 10 10 9 10 10 10 10 12 12 13 10 10 11 13 12 11 10 9 9 8 9 9 5 6 8 8 8 7 9 8 10 10 10 10 10 10 10 10 10 9 9 8 8 8 7 7 7 8 8 8 8 9 7 6 6 5 2 2 1 1
2 2 4 10 10 10 8 10 14 1 4 8 16 18 16 16 14 15 16 13 11 19 23 19 14 12 11 13 15 18 19 21 20 14 12 9 8 8 7 7 9 8 10 10 12 14 14 16 14 16 15 14 13 13 12 13 13 11 8 11 14 12 12 11 10 10 11 11 11 11 11 10 10 10 10 10 10 9 8 7 8 7 7 8 8 10 8 7 6 5 6 3 5 3 1 1 2
6 6 6 12 5 15 12 14 10 1 1 3 7 17 19 18 16 17 16 15 19 17 22 23 20 14 13 14 17 19 20 15 13 14 15 6 5 6 7 8 7 9 12 12 16 18 17 16 16 16 10 13 14 15 14 14 15 16 18 18 17 14 13 13 13 11 13 11 11 11 11 10 11 11 10 10 10 10 10 9 9 10 9 9 8 5 5 5 6 6 6 3 0 3 2 2 1
7 8 8 9 9 13 13 13 13 6 1 10 10 16 15 14 15 15 16 20 19 15 14 16 18 22 18 15 17 19 17 18 14 12 13 9 6 7 8 9 10 14 12 15 17 13 13 14 16 13 13 15 15 15 14 15 14 12 12 9 11 8 8 9 9 10 9 10 11 11 10 10 11 10 11 11 11 10 10 10 10 9 10 9 8 8 8 9 8 9 9 8 5 1 1 1 1
5 7 5 12 7 5 9 2 2 1 1 8 10 21 19 13 17 21 22 21 16 11 10 13 16 20 23 22 18 15 15 15 16 14 13 11 5 7 7 8 10 8 8 9 11 14 12 14 14 15 14 15 14 15 16 13 11 8 5 2 5 6 6 4 5 5 8 8 10 10 11 11 12 12 11 12 10 10 11 12 10 9 10 10 10 10 10 10 9 8 8 6 7 4 2 3 0
7 12 9 9 10 13 10 5 6 6 5 4 11 15 15 11 12 7 13 7 10 16 13 14 18 19 21 21 18 11 13 14 16 19 17 13 7 8 9 9 5 9 10 12 12 13 12 17 16 15 14 15 14 14 14 10 8 7 6 5 5 5 4 6 5 6 9 9 8 11 12 10 12 12 12 13 12 13 11 11 11 11 10 10 9 10 10 12 12 11 10 8 9 9 7 2 1
8 5 10 18 15 10 7 8 7 5 7 4 5 12 14 3 8 9 7 2 4 6 8 16 21 21 18 7 20 11 7 10 14 17 18 16 11 7 4 4 5 8 10 12 9 12 11 11 12 13 11 12 13 14 15 13 13 13 12 11 10 10 10 10 15 17 12 13 16 11 10 14 13 13 12 13 13 11 12 12 12 11 11 10 10 10 9 7 8 10 11 10 9 4 8 6 3
6 8 14 16 10 7 6 11 4 5 2 2 2 3 21 4 3 6 6 4 8 8 10 18 19 15 6 9 10 10 11 11 7 9 14 15 13 5 5 5 7 10 12 8 7 9 11 11 11 14 14 12 13 13 16 13 13 13 17 18 16 17 17 15 12 9 12 12 9 11 12 10 11 13 12 12 12 12 12 12 12 12 11 11 10 9 9 11 11 11 8 8 9 6 6 7 9
9 3 6 6 5 7 7 4 6 8 1 4 2 5 6 23 2 10 10 8 10 13 16 17 13 11 12 10 9 10 11 9 9 12 13 10 5 5 7 8 8 13 11 7 9 9 12 12 11 13 11 11 12 13 16 16 16 16 16 15 14 14 15 14 12 12 12 11 11 11 10 10 11 11 12 12 12 12 12 12 12 11 12 11 11 11 12 10 8 6 7 7 5 6 8 9 8
6 1 6 5 7 6 3 5 5 3 4 9 3 3 4 10 4 3 4 2 9 14 17 17 11 11 11 14 10 7 10 11 9 12 14 5 5 6 7 8 10 9 8 9 10 10 9 9 10 10 13 12 12 15 16 16 15 16 16 15 15 13 12 8 7 7 9 8 10 8 9 9 9 10 10 11 12 12 12 13 13 12 12 12 11 10 9 9 11 11 10 9 9 8 7 4 9
4 3 5 5 5 4 3 4 3 2 2 12 7 6 4 17 14 4 3 2 6 12 13 8 8 9 13 13 12 12 11 9 8 11 6 4 4 6 6 6 7 8 6 6 5 4 5 7 10 11 13 11 11 14 15 16 15 13 14 15 17 13 9 6 8 9 9 8 11 10 10 9 10 9 10 10 10 12 12 12 12 14 14 12 11 12 11 10 9 10 11 11 9 8 6 7 9
3 3 2 3 5 3 3 5 2 2 3 12 13 10 7 10 5 7 5 5 5 4 8 8 3 4 9 8 9 11 10 7 8 11 5 4 5 6 5 6 7 6 4 4 5 5 5 7 9 11 12 10 11 14 15 17 15 15 16 17 17 15 13 11 10 11 10 9 12 12 11 10 9 11 10 10 12 12 12 12 13 13 11 11 11 11 12 12 11 10 9 7 8 10 8 8 4
1 0 1 3 4 5 2 3 2 3 8 5 10 14 11 9 3 2 4 3 4 5 6 13 8 6 9 7 7 7 8 10 9 4 7 10 9 6 5 6 6 6 4 2 2 2 4 5 6 9 8 10 10 12 14 15 15 16 15 16 17 17 16 14 16 16 16 17 15 14 11 9 10 10 10 10 12 13 12 12 11 11 11 11 12 11 10 10 9 8 8 9 9 7 6 7 6
4 2 0 3 5 6 3 2 1 5 10 3 4 5 3 16 15 3 11 12 11 9 8 7 7 9 10 11 11 10 11 10 10 8 6 6 8 11 7 8 6 5 4 3 2 3 3 4 6 9 11 10 11 12 14 15 15 17 17 16 15 13 15 16 16 15 14 15 14 13 13 14 11 11 13 15 14 15 13 12 13 13 12 12 11 10 10 10 10 10 10 10 9 11 11 10 9
7 7 5 5 2 3 5 4 2 5 6 3 5 1 8 11 9 7 13 16 8 5 7 8 8 10 12 12 10 12 12 10 9 10 8 6 7 10 9 7 7 5 4 4 4 4 5 5 6 9 9 9 11 13 14 15 17 16 14 14 14 13 14 14 13 13 12 12 12 14 15 15 15 18 16 17 15 15 13 15 14 14 13 12 12 12 11 11 10 11 11 11 12 10 8 10 9
12 3 12 10 9 6 4 4 9 9 6 1 3 3 8 0 5 0 7 7 8 7 4 6 6 7 8 8 10 12 12 10 6 8 7 9 9 8 9 8 6 5 5 4 4 4 4 6 7 9 8 7 8 11 12 16 16 15 13 13 12 12 14 13 13 12 12 13 12 13 13 12 14 15 16 14 12 16 17 14 15 15 14 14 13 12 11 11 11 9 9 11 9 8 9 9 8
3 3 3 2 8 4 8 4 3 5 3 2 2 8 4 8 4 6 8 9 11 9 9 4 7 6 6 7 9 11 10 8 8 6 7 7 6 8 8 7 5 5 5 4 5 5 6 7 7 9 10 10 11 11 13 13 12 10 11 13 14 13 11 11 10 11 13 14 15 16 16 15 14 12 11 11 15 15 15 16 14 15 14 13 14 14 13 12 12 11 10 9 11 7 10 11 9
1 5 5 7 2 4 4 4 1 2 1 12 3 8 9 6 11 14 10 7 9 5 7 7 10 11 6 7 11 10 8 8 8 6 5 6 6 6 6 6 7 5 5 6 7 7 8 7 7 8 8 7 11 12 11 8 9 9 13 13 12 13 14 15 15 13 11 9 9 10 11 12 9 10 11 12 13 14 14 14 14 13 13 13 13 13 13 12 12 12 11 11 11 9 10 12 9
6 1 7 1 2 3 2 5 3 3 10 9 7 16 13 5 12 2 3 8 8 5 7 8 6 6 6 9 7 6 7 7 8 6 4 6 5 6 6 5 5 6 7 7 8 6 6 7 8 9 9 11 9 9 10 10 11 12 11 13 14 15 14 14 11 10 8 7 7 8 7 8 13 10 9 10 12 13 13 14 14 13 13 12 13 12 12 12 12 11 11 11 10 10 10 8 9
2 2 2 1 5 4 2 3 5 8 12 7 7 11 14 10 16 14 19 19 18 11 5 6 7 7 7 6 7 7 7 7 11 13 10 3 3 5 6 7 8 6 7 8 8 4 5 6 7 8 11 10 7 6 5 6 7 8 8 10 11 11 11 11 9 6 6 10 10 10 10 9 5 7 9 9 11 12 12 13 13 13 12 13 12 12 12 12 12 11 10 10 9 10 10 10 9
0 0 2 0 1 4 3 6 2 1 11 7 12 11 12 5 10 13 17 20 22 20 2 6 8 9 6 5 5 7 8 9 11 12 12 15 11 9 7 8 10 11 9 8 7 6 7 7 6 6 5 3 5 6 7 9 8 8 10 7 8 9 9 9 8 9 9 10 10 9 9 8 10 6 7 9 11 12 13 14 13 13 13 12 13 12 13 13 12 12 11 11 10 11 11 12 10
4 2 4 1 3 2 1 3 4 6 8 10 9 12 6 7 5 12 17 21 23 22 15 6 7 7 4 5 6 9 12 10 9 9 12 13 12 11 10 11 11 9 9 9 7 7 7 7 7 6 5 5 5 6 6 10 10 12 10 12 11 9 10 7 6 7 9 8 8 10 11 10 6 10 10 12 12 13 13 14 14 14 14 14 14 14 12 12 13 13 12 12 11 12 13 10 9
14 10 11 11 7 6 9 13 5 6 8 10 8 16 5 7 8 13 17 18 18 18 13 5 3 4 5 9 10 8 8 9 10 11 11 13 11 11 11 11 10 9 10 12 12 8 7 7 7 6 5 4 5 6 7 5 5 7 9 11 10 8 9 8 8 9 10 10 10 11 10 7 12 10 11 13 14 13 13 15 15 15 15 14 14 14 14 13 14 14 14 11 12 14 13 11 10
Wind_Direction
335 345 343 83 63 94 45 2 351 313 44 259 318 278 261 283 255 331 260 339 307 240 211 10 124 140 170 206 200 191 206 136 207 127 215 239 311 265 225 266 234 143 154 163 164 173 170 186 177 173 172 173 176 172 174 173 170 169 169 172 173 168 166 162 153 146 147 140 136 128 128 117 103 103 95 93 91 88 88 91 87 82 77 72 68 62 65 67 68 68 66 64 63 62 60 57 54
299 340 39 9 25 54 255 119 100 352 39 4 252 118 253 281 12 227 255 198 209 261 327 283 204 339 69 62 174 63 278 215 178 191 276 243 294 249 219 236 188 158 154 163 161 169 169 183 172 174 172 172 172 171 169 169 166 165 165 166 165 159 153 152 146 144 142 140 139 137 129 124 121 110 114 106 104 114 112 102 93 93 93 85 76 73 73 73 72 70 66 65 65 64 63 60 57
359 16 12 28 23 77 93 37 285 66 47 283 273 213 325 296 214 255 234 226 216 277 273 301 32 347 281 314 336 158 257 328 300 291 228 331 128 220 212 199 195 159 152 155 158 168 168 178 171 171 169 168 170 168 167 164 164 162 160 161 158 154 151 149 146 146 144 148 144 139 132 127 121 125 120 116 124 128 118 99 95 92 93 92 92 87 82 78 75 70 68 68 68 65 65 63 60
81 29 130 68 222 33 65 26 95 130 238 218 312 268 204 206 240 224 252 257 253 305 318 32 153 224 165 246 230 36 271 292 193 164 270 217 215 185 182 180 184 158 147 153 162 163 166 182 165 166 165 165 167 166 166 158 161 157 158 160 159 158 159 157 157 158 152 146 150 141 141 149 127 132 120 134 142 131 103 103 102 102 99 94 94 90 87 84 81 78 75 72 69 66 64 63 62
59 357 79 102 109 5 102 170 144 109 246 185 201 269 236 227 249 282 278 282 285 191 73 128 322 267 188 208 221 202 253 244 280 188 247 255 220 187 160 171 166 158 162 165 159 159 170 183 171 167 164 168 167 167 167 165 162 161 161 165 164 165 163 164 167 162 162 170 162 164 163 158 143 156 132 143 151 116 110 106 103 102 100 97 94 93 91 88 84 83 81 77 73 68 65 64 63
57 37 357 84 330 156 61 77 265 205 225 145 234 258 231 224 238 264 288 289 248 185 163 82 194 326 330 225 187 207 204 31 154 243 177 255 190 169 158 158 162 161 167 164 159 159 170 184 175 174 168 168 173 171 171 169 171 165 172 178 179 178 178 171 176 174 177 173 177 182 178 179 163 159 154 155 136 116 112 110 107 102 102 99 97 95 93 89 88 87 85 81 78 73 69 67 66
263 43 355 24 25 53 176 182 231 213 263 160 235 261 264 279 229 337 321 347 161 168 164 204 90 325 320 301 316 241 195 123 106 229 167 305 150 157 151 158 158 167 165 169 161 161 176 183 180 179 171 176 178 179 181 182 183 181 176 186 187 189 196 190 196 191 180 186 187 186 177 168 166 160 162 161 125 120 116 112 108 106 103 100 98 94 92 91 90 87 84 81 78 75 73 71 69
62 134 316 108 219 24 226 235 256 153 274 175 232 234 271 271 178 48 290 61 293 203 289 318 108 115 251 65 247 281 314 220 204 146 230 182 150 157 156 157 162 174 171 169 168 172 176 184 183 187 182 183 182 182 190 192 189 190 193 196 198 200 195 200 204 191 206 208 196 186 176 169 168 168 168 149 131 123 120 116 113 110 105 103 99 95 94 95 93 90 87 84 80 78 76 73 71
0 84 244 70 201 47 33 252 259 222 282 282 269 228 269 260 221 267 283 233 320 262 293 188 212 88 251 358 226 260 286 281 302 258 199 155 165 161 159 170 170 169 175 172 174 177 179 189 184 187 185 182 183 182 188 195 200 197 195 202 203 207 206 212 208 208 200 190 185 180 174 171 167 168 160 144 136 130 124 120 118 115 112 108 104 102 99 97 96 92 90 86 83 80 78 75 73
34 59 288 136 124 263 352 283 122 238 221 240 265 277 262 237 233 192 244 299 218 356 262 271 169 217 294 281 298 296 241 343 306 74 172 172 163 159 163 176 174 164 169 176 178 178 178 190 185 188 183 177 184 188 192 196 201 204 199 206 210 211 208 205 200 194 189 185 183 180 175 171 171 163 150 143 138 134 130 126 121 119 115 110 108 106 101 99 97 95 91 88 85 81 79 76 73
6 15 158 93 23 304 236 277 263 307 272 303 292 251 249 253 224 246 195 236 275 211 331 165 48 238 54 265 223 257 331 342 141 208 185 169 160 167 162 169 164 167 169 180 179 177 183 188 193 193 184 182 186 204 199 198 208 206 207 206 204 200 200 195 194 189 187 182 181 179 174 171 163 155 149 144 139 136 131 127 124 121 117 113 109 107 104 100 96 93 90 88 86 83 78 76 73
357 30 6 95 209 175 248 234 286 281 290 313 269 337 323 155 115 206 233 236 280 252 225 153 245 133 188 313 289 283 317 289 210 236 158 152 162 162 154 150 150 168 164 175 179 188 192 189 194 205 186 184 185 198 203 196 204 203 198 200 199 198 195 194 191 189 185 183 179 175 170 163 157 153 149 143 140 136 133 130 127 123 119 116 112 108 103 99 96 93 91 88 86 83 81 79 76
109 106 80 105 236 162 233 296 258 310 316 291 238 308 54 129 182 219 213 233 159 353 290 214 94 108 281 199 254 314 325 267 198 165 146 146 149 135 131 142 152 158 167 166 174 197 202 199 196 205 189 185 184 193 203 195 197 194 196 196 197 196 194 194 189 188 186 182 177 172 164 160 155 152 148 144 140 137 134 130 127 124 120 118 115 109 104 102 98 96 93 89 86 84 82 80 77
117 178 130 248 70 137 186 255 289 314 296 250 257 289 261 178 235 197 130 221 238 183 233 214 128 132 261 357 304 337 256 315 142 129 112 115 113 116 132 141 153 167 177 174 186 190 198 203 197 200 189 184 185 194 194 188 194 191 195 195 195 194 192 191 190 188 186 180 172 165 160 156 154 151 148 144 141 137 132 129 127 123 119 116 111 107 104 102 100 97 94 90 85 83 81 78 75
129 163 84 126 253 38 241 179 233 141 265 246 266 358 337 251 155 136 177 213 270 205 212 149 179 110 250 159 282 251 276 280 126 113 107 98 98 109 120 139 162 176 190 195 199 187 199 195 198 193 187 177 184 179 178 188 187 193 192 192 195 188 186 187 186 188 181 172 165 159 152 150 149 149 146 145 140 136 134 129 128 124 121 115 110 105 102 100 100 97 93 89 85 80 78 75 73
139 88 80 181 267 154 270 198 63 128 265 201 269 290 316 278 183 154 247 183 253 305 121 226 326 200 223 166 225 230 295 133 134 111 106 102 91 85 115 145 179 209 208 209 209 208 196 191 194 192 183 177 181 169 176 181 188 190 190 190 184 185 187 181 177 177 168 162 152 145 143 140 128 124 122 127 135 129 119 128 132 127 122 116 110 107 103 100 97 95 91 87 82 77 71 67 67
75 80 311 43 278 157 252 177 158 235 246 277 284 283 238 295 285 245 134 133 249 264 221 226 200 50 208 210 237 272 191 127 118 113 110 117 131 137 151 209 217 233 228 223 211 207 202 193 193 187 190 179 177 166 176 180 186 181 183 180 179 182 180 174 171 161 142 132 127 124 117 107 108 102 94 100 102 112 122 123 124 124 118 115 111 107 103 99 96 90 87 83 79 73 65 57 53
64 134 123 258 203 160 211 190 192 217 217 274 331 143 107 299 316 256 54 301 239 293 270 294 294 257 219 239 348 142 147 141 149 143 160 159 162 173 200 210 191 211 207 215 220 210 199 202 192 189 186 188 175 169 174 178 181 175 169 173 171 176 172 166 154 135 131 129 127 121 123 124 120 118 120 116 116 111 110 113 119 122 119 115 113 109 106 101 95 91 87 83 78 71 64 56 43
116 122 115 234 183 236 163 203 210 142 253 229 267 261 213 254 170 290 328 281 312 294 268 280 270 277 275 291 119 135 151 160 165 175 170 177 186 190 199 194 208 209 216 215 213 204 201 194 195 194 190 181 176 174 175 179 180 168 168 167 169 166 162 145 140 139 135 137 132 135 133 131 134 135 133 133 129 123 117 114 119 124 121 119 117 111 107 102 98 94 90 84 75 67 61 59 54
220 123 225 247 212 234 226 192 222 201 253 295 305 303 163 254 154 309 227 276 344 262 264 284 244 260 257 218 152 164 174 179 188 182 189 195 195 196 194 197 207 214 215 207 203 192 198 200 198 192 187 180 176 180 176 180 179 168 169 169 168 162 151 147 145 146 145 147 148 145 141 143 140 144 149 142 131 123 119 109 103 98 98 89 86 84 91 96 93 89 87 79 67 63 64 55 56
265 112 204 233 212 195 251 205 231 236 176 264 262 320 315 271 229 139 226 335 263 250 231 229 243 239 254 222 191 173 187 193 199 204 202 205 208 209 204 200 198 204 207 181 186 203 202 199 190 194 184 180 181 180 179 185 175 167 173 172 167 162 152 150 152 151 155 154 155 150 150 146 147 147 138 130 127 122 110 103 96 98 98 96 94 91 83 79 75 80 73 72 70 74 71 61 64
112 211 233 204 108 212 247 210 222 212 198 209 286 318 262 356 164 220 203 227 269 233 237 218 234 242 242 231 206 183 194 198 204 206 211 206 204 209 213 225 235 224 168 190 208 203 200 199 194 188 182 187 188 182 184 177 167 180 179 177 166 167 160 158 156 158 158 163 160 156 150 144 149 143 142 144 142 136 129 128 124 126 113 109 105 107 98 99 90 89 94 90 83 82 84 81 72
241 270 257 230 205 244 245 198 223 174 245 190 298 246 328 271 279 205 166 220 257 245 222 215 231 232 236 225 144 195 204 208 207 211 210 214 219 221 216 213 203 205 198 212 201 205 196 196 198 186 193 187 193 181 174 175 187 182 175 176 170 180 167 163 170 166 168 166 165 163 154 158 156 156 154 156 156 150 142 141 139 125 123 117 119 118 108 101 106 104 102 103 102 96 89 86 87
235 258 239 280 195 231 250 270 102 213 212 254 214 341 291 279 291 158 191 241 247 267 239 251 248 245 196 190 193 203 203 204 212 214 208 209 207 210 208 205 209 209 205 216 201 200 196 199 193 189 196 190 191 182 180 185 183 178 182 179 187 177 170 178 175 173 164 172 172 170 163 162 163 163 167 163 165 150 152 140 125 115 115 116 113 116 119 111 108 108 112 110 106 103 106 97 91
208 269 219 264 165 241 265 263 278 272 261 259 310 283 262 244 250 353 252 259 261 265 254 252 258 254 236 226 221 220 218 225 231 228 231 238 233 236 243 243 223 206 219 209 204 200 203 194 189 198 195 195 189 180 190 188 180 180 182 186 191 180 184 184 175 166 174 174 175 173 165 163 167 166 167 169 153 153 144 133 130 125 120 128 123 114 126 132 124 127 127 125 118 113 107 99 91
206 232 206 284 272 279 274 304 254 242 268 166 224 256 266 269 270 262 251 257 260 265 273 252 256 260 242 233 229 214 220 222 226 227 222 223 226 228 231 219 215 216 218 206 201 210 197 187 194 199 195 192 188 178 194 186 187 188 191 193 188 182 190 178 168 181 179 172 178 180 176 170 173 171 169 163 160 155 144 134 131 135 136 140 133 141 146 135 142 130 123 121 116 110 103 104 92
172 230 245 260 263 291 283 225 265 217 236 170 194 254 268 321 74 282 145 238 248 266 257 279 241 243 243 239 234 223 221 228 220 223 247 233 227 222 229 217 217 225 206 214 209 207 194 187 201 199 195 192 183 190 191 195 185 197 194 190 185 191 178 170 182 182 180 185 179 175 176 175 168 167 165 163 158 147 146 149 147 135 136 151 141 142 134 140 136 142 146 141 131 121 114 97 102
61 214 305 283 275 260 248 253 265 146 278 188 197 243 275 302 128 252 268 230 213 278 282 265 253 248 248 243 240 231 226 238 230 197 227 217 220 215 220 211 220 220 206 218 211 191 189 200 199 194 194 192 188 194 193 195 195 197 192 187 193 189 172 182 183 183 188 188 178 177 176 175 167 166 164 164 159 153 155 158 152 152 165 157 153 147 150 136 139 126 111 109 116 115 115 100 96
229 31 315 287 319 319 258 227 251 158 251 147 167 227 306 276 224 247 249 270 223 263 272 280 262 251 254 250 247 240 230 238 215 218 229 225 224 212 222 216 216 211 219 217 203 188 202 198 194 196 193 192 193 196 196 198 195 192 191 195 191 183 181 180 186 189 189 185 181 181 178 172 171 166 168 166 160 156 156 157 160 171 166 160 157 155 144 135 121 121 105 103 101 100 103 105 83
21 60 176 320 322 297 293 176 24 151 247 144 134 278 211 250 256 257 262 263 236 275 266 264 266 261 257 247 240 248 249 237 225 226 231 229 226 216 224 223 214 214 214 209 193 209 202 193 195 190 192 194 199 197 197 197 197 196 195 192 188 183 187 185 193 188 185 184 184 184 177 176 170 167 162 163 156 154 158 165 167 175 169 162 158 152 156 155 145 138 147 131 143 137 137 149 142
278 245 105 252 342 266 305 72 120 225 192 171 122 251 236 254 265 270 263 174 197 240 253 263 267 265 261 257 245 246 254 227 231 233 235 234 229 224 226 229 212 215 211 204 205 212 187 197 186 195 194 198 196 199 198 200 196 196 192 191 189 188 187 190 189 183 186 186 181 184 182 178 172 169 168 162 163 160 163 170 178 180 160 155 158 164 152 153 148 156 153 139 122 130 137 147 166
333 354 271 339 197 283 299 285 191 235 343 241 134 255 252 236 250 266 303 127 161 229 251 261 271 271 266 263 254 254 255 251 244 247 241 235 226 228 223 228 211 210 209 210 211 194 200 198 191 198 191 198 199 200 199 199 196 195 193 191 188 187 188 191 188 190 187 180 183 183 185 180 174 172 168 165 163 169 170 178 181 158 158 150 155 156 152 165 167 161 182 158 140 176 152 142 168
346 202 274 269 224 264 342 283 227 230 122 287 180 245 290 284 253 264 288 263 192 236 256 260 265 270 271 265 260 258 269 272 256 246 244 234 229 224 226 228 210 212 209 207 204 196 204 198 195 197 195 198 200 200 200 200 196 195 193 191 191 187 191 192 190 183 183 184 183 186 183 182 178 173 171 171 166 171 173 175 167 161 152 157 161 167 171 174 168 169 188 215 213 159 170 149 154
271 138 225 201 245 289 278 304 288 135 172 217 250 253 244 259 287 301 305 253 212 243 256 262 264 269 269 271 270 266 262 264 263 254 247 231 233 224 227 226 218 216 213 209 204 197 203 196 197 200 201 197 196 195 197 197 195 190 191 191 188 191 197 193 187 183 189 184 182 190 182 184 178 176 173 172 173 173 172 168 158 159 156 157 162 170 183 168 171 168 167 199 184 146 160 155 165
233 231 258 280 250 237 255 311 265 20 153 208 307 248 261 270 279 281 274 291 286 272 267 263 262 262 268 270 268 266 262 259 258 256 251 241 225 227 226 227 223 214 213 210 205 206 200 197 196 200 199 195 192 193 191 185 177 178 166 171 184 196 198 196 187 187 187 185 192 187 181 183 179 177 175 172 171 170 165 163 162 165 159 161 165 173 174 175 177 188 177 144 136 168 148 169 164
237 230 251 271 275 248 224 242 268 258 283 297 247 263 269 268 267 268 269 257 270 275 273 269 263 258 261 264 262 260 261 261 259 260 262 241 226 223 218 219 220 215 213 203 203 201 202 195 195 199 200 188 187 183 173 179 175 180 181 167 192 207 196 194 192 193 183 193 194 185 184 183 179 178 176 174 172 168 168 170 166 163 168 166 171 176 184 184 182 178 183 155 140 103 56 130 124
344 240 241 255 264 277 267 270 263 96 304 234 263 268 268 268 268 267 267 269 255 271 277 274 267 261 255 254 254 257 258 257 263 267 264 248 231 225 219 207 214 208 209 198 198 203 199 197 188 201 195 184 183 180 182 180 181 185 187 197 206 197 193 192 193 194 193 198 190 189 183 184 180 177 177 171 178 170 168 160 161 170 173 176 181 194 186 179 180 177 163 159 147 131 164 157 220
254 273 271 267 233 273 252 268 279 65 240 265 246 275 274 273 274 271 269 269 261 247 267 277 278 268 256 254 259 258 258 268 270 275 270 264 239 222 213 210 195 201 214 196 203 203 200 197 195 203 178 189 191 189 186 188 192 188 187 196 197 190 186 188 199 195 199 193 188 187 185 184 181 181 176 178 174 171 168 169 174 177 175 185 188 170 170 178 174 176 170 124 30 143 171 199 216
251 242 262 285 260 260 272 265 276 282 162 273 270 268 266 269 267 269 259 255 256 248 243 263 281 282 273 259 253 259 266 267 274 269 275 266 230 222 211 211 210 210 206 200 208 201 198 196 204 194 189 188 193 190 185 196 194 195 195 198 192 191 204 207 203 197 187 187 187 186 184 184 180 180 180 178 176 180 175 171 182 174 181 175 171 179 181 185 187 186 190 166 139 48 148 207 176
220 251 263 249 262 282 297 246 3 322 221 299 287 288 283 265 257 251 254 256 261 275 253 250 249 262 267 264 254 257 262 276 280 277 273 273 222 230 216 220 219 214 216 212 209 203 199 203 203 194 193 192 191 193 195 196 189 186 182 113 164 163 181 172 170 160 183 175 187 185 192 185 181 185 178 179 181 178 178 181 173 177 182 182 182 179 184 190 186 194 198 196 151 140 186 208 146
198 223 240 269 254 242 236 273 335 316 288 261 299 290 277 212 246 254 267 270 267 261 267 261 257 251 252 261 273 251 268 273 281 286 282 276 266 242 222 225 209 213 216 215 205 201 202 204 200 194 192 192 192 190 189 173 157 145 131 83 100 91 79 148 159 195 189 187 186 196 196 182 188 185 182 183 180 182 181 178 176 180 180 184 183 186 188 194 192 193 187 176 186 162 182 208 214
243 219 203 237 249 272 269 286 349 1 315 341 34 330 303 200 196 224 273 2 294 264 242 255 253 250 251 264 272 280 255 253 259 270 277 284 273 273 267 265 232 234 231 224 212 211 206 205 198 195 192 189 189 186 180 171 177 173 164 164 171 183 190 181 196 199 178 187 202 191 188 194 187 187 182 183 186 179 181 180 179 176 182 183 189 193 191 181 192 192 197 190 191 208 153 154 151
273 262 205 232 244 246 264 279 9 291 236 302 43 114 292 161 193 231 250 238 252 271 233 242 248 258 290 243 262 284 274 275 262 258 273 278 284 325 276 248 236 238 238 223 214 213 210 206 197 193 192 190 186 182 176 175 178 183 187 190 190 188 193 207 202 182 186 198 193 190 196 188 192 186 186 184 186 183 180 181 181 182 183 186 188 184 189 195 194 198 186 194 199 163 140 159 169
263 234 170 198 205 214 230 214 192 250 268 277 187 166 240 299 287 202 209 213 239 250 258 265 272 289 287 289 267 269 277 275 276 274 268 267 315 300 280 250 236 234 234 209 214 209 205 201 191 192 191 189 186 178 180 183 184 186 189 194 195 200 205 202 185 189 189 187 190 192 185 192 191 192 186 188 186 184 181 182 182 182 184 189 184 193 196 195 189 194 192 202 172 186 180 166 171
230 259 156 186 201 202 147 162 195 223 21 298 214 109 303 257 253 55 140 194 254 257 259 262 281 294 284 280 297 301 281 271 269 276 278 327 323 287 261 257 249 249 239 220 217 210 203 194 189 187 192 188 185 182 183 189 190 187 190 191 198 209 203 188 170 177 187 183 188 182 186 186 189 195 192 188 189 186 185 185 183 186 188 189 190 194 197 188 191 184 185 188 191 197 200 168 151
274 94 66 64 73 67 134 123 130 324 39 274 175 187 214 278 294 139 351 170 247 250 253 267 270 263 277 288 300 288 285 292 291 283 302 341 286 271 265 275 285 258 255 247 240 208 198 185 188 186 194 188 183 184 186 189 191 186 192 199 202 198 185 164 159 176 182 175 190 186 185 181 188 190 195 191 188 192 190 186 188 191 192 189 190 194 190 188 192 195 193 191 187 188 191 176 181
103 93 61 6 34 32 27 68 94 54 249 259 169 201 172 279 282 176 131 207 210 312 309 275 280 280 273 272 267 287 287 288 283 283 343 359 301 284 301 290 274 293 274 254 234 202 193 194 190 192 194 184 183 187 186 190 191 191 198 199 199 193 185 172 168 183 177 175 192 190 187 189 181 192 188 193 195 191 193 191 192 195 192 191 191 190 193 191 192 190 189 187 189 187 185 182 167
158 241 136 27 319 16 30 340 47 182 267 257 181 183 189 214 298 310 233 256 223 216 260 284 299 276 280 301 293 281 296 297 290 336 328 328 332 325 331 304 295 289 316 290 272 238 199 195 193 196 193 190 186 187 190 194 194 199 202 198 198 196 184 186 190 188 185 187 189 186 183 176 190 188 188 194 198 193 192 193 192 191 195 192 198 195 192 191 183 180 180 188 192 193 175 174 171
124 132 21 235 273 23 326 35 299 188 220 253 194 152 350 244 247 264 296 297 270 213 228 255 261 283 301 299 305 308 291 290 311 327 330 332 323 323 326 313 308 305 307 301 253 220 208 197 194 196 204 191 189 187 194 197 197 203 202 200 202 196 196 196 198 195 190 190 186 181 177 190 181 184 197 197 200 190 188 188 191 193 196 199 195 189 192 184 180 182 185 189 188 186 186 182 178
136 163 162 116 263 237 251 266 255 304 295 259 166 221 249 274 294 228 245 253 278 280 214 229 238 257 278 288 303 296 299 309 311 312 320 327 321 319 316 305 305 308 292 270 244 208 201 196 196 206 215 200 192 192 196 199 206 207 203 202 201 196 201 200 200 198 191 192 187 189 187 188 187 196 192 199 191 184 190 197 192 196 197 191 190 189 186 186 182 185 185 187 191 192 179 187 189
197 114 159 188 162 163 228 194 240 241 233 5 281 111 229 131 233 229 224 269 282 267 253 240 248 255 266 278 280 285 287 292 309 309 318 324 324 308 302 302 305 291 274 260 247 226 207 208 198 204 205 210 212 207 199 206 208 205 205 206 203 202 204 201 203 198 189 189 192 192 194 192 196 199 196 195 176 187 193 190 194 194 192 189 185 185 185 183 186 185 188 193 189 182 185 181 185
210 160 75 76 229 135 235 193 238 282 309 336 226 211 207 230 282 285 249 257 265 264 267 270 276 267 258 276 272 272 284 296 300 300 311 314 310 304 300 304 303 291 268 252 235 222 213 215 207 210 207 195 200 210 216 213 213 210 209 208 210 207 209 208 207 202 201 194 192 193 195 196 200 192 191 180 190 185 189 193 192 196 191 188 187 186 182 182 183 185 187 187 190 181 180 184 186
259 96 200 213 167 148 294 315 244 112 20 251 206 279 271 301 287 279 295 288 277 301 276 285 267 262 268 267 271 280 295 297 287 292 292 292 302 303 290 291 301 294 281 252 241 220 214 208 207 215 217 215 208 208 213 216 219 215 216 213 210 211 210 210 209 209 207 202 201 206 202 203 193 189 189 185 181 188 189 190 191 193 191 191 188 188 185 183 181 186 188 187 191 182 182 188 180
100 173 242 175 157 121 162 230 333 252 242 256 226 262 277 326 284 341 355 297 290 294 303 272 288 299 293 266 274 287 289 285 274 264 241 249 253 271 296 298 287 289 279 277 259 234 223 213 209 210 211 215 219 212 209 206 209 215 218 221 219 215 214 216 213 208 198 193 201 203 204 193 203 196 181 183 182 182 186 188 191 191 190 188 190 186 185 184 181 190 191 192 190 174 183 185 187
172 194 274 127 246 265 279 89 251 241 243 255 223 252 260 248 270 292 289 285 284 285 256 288 289 288 266 281 297 305 292 310 337 340 335 309 266 319 324 324 319 302 288 285 291 277 256 238 223 214 216 215 210 207 221 234 227 228 227 226 227 231 228 222 217 206 187 197 201 202 203 207 176 185 188 178 180 184 185 188 189 189 187 190 187 188 183 183 183 188 189 191 182 178 185 188 186
7 10 311 197 97 223 202 191 179 293 269 264 254 224 252 210 256 268 281 283 289 289 284 258 246 251 265 281 307 304 327 335 336 338 331 333 25 2 351 344 336 327 323 313 307 301 275 264 251 245 253 228 209 208 197 214 222 228 227 224 230 231 239 240 226 209 201 203 204 199 200 197 202 170 184 181 188 187 185 187 189 188 187 187 187 188 185 185 184 191 187 188 186 181 188 189 184
254 213 242 238 206 219 63 333 256 237 262 252 275 257 223 226 238 262 268 275 281 288 293 258 245 268 298 269 278 327 337 335 320 326 341 349 3 2 359 358 347 335 331 328 322 310 303 304 281 274 247 234 233 233 220 225 207 218 221 224 216 209 227 227 239 231 226 218 205 201 201 200 161 194 181 189 189 190 190 190 187 189 188 187 187 187 188 186 189 191 190 190 181 185 189 192 178
243 221 222 212 214 256 255 257 171 225 227 249 248 257 236 223 210 245 260 268 277 286 295 288 274 298 301 335 329 300 298 320 356 357 354 350 360 18 19 16 13 7 351 343 328 325 312 301 297 296 284 259 245 244 238 254 249 241 232 236 234 224 201 195 215 223 226 221 214 209 201 177 200 196 188 196 195 191 191 189 189 191 189 188 189 189 188 189 191 191 192 188 186 185 190 188 180